Weather History for Houston, TX

Change the Weather History Date:

Thursday, March 14, 2013

  Actual Average (KSGR) Record (KSGR)
Temperature  
Mean Temperature 58 °F -  
Max Temperature 75 °F 72 °F 87 °F (1949)
Min Temperature 41 °F 52 °F 31 °F (1975)
Degree Days  
Heating Degree Days 7    
Growing Degree Days 8 (Base 50)    
Moisture  
Dew Point 45 °F    
Average Humidity 64    
Maximum Humidity 100    
Minimum Humidity 29    
Precipitation  
Precipitation 0.00 in - - ()
Sea Level Pressure  
Sea Level Pressure 30.35 in    
Wind  
Wind Speed 4 mph (SSE)    
Max Wind Speed 15 mph    
Max Gust Speed 18 mph    
Visibility 8 miles    
Events      
Averages and records for this station are not official NWS values.
T = Trace of Precipitation, MM = Missing Value Source: NWS Daily Summary

Daily Weather History Graph

Daily Weather History Graph

Search for Another Location

Airport:

Trip Planner

Search our weather history database for the weather conditions in past years. The results will help you decide how hot, cold, wet, or windy it might be!

Date:

Astronomy

Mar. 14, 2013 Rise Set
Actual Time 7:34 AM CDT 7:31 PM CDT
Civil Twilight 7:10 AM CDT 7:55 PM CDT
Nautical Twilight 6:42 AM CDT 8:23 PM CDT
Astronomical Twilight 6:14 AM CDT 8:50 PM CDT
Moon 9:04 AM CDT (3/14) 10:30 PM CDT (3/14)
Length of Visible Light 12h 44m
Length of Day
11h 57m
Waxing Crescent, 9% of the Moon is Illuminated
Mar 14
Waxing Crescent
Mar 19
First Quarter
Mar 27
Full
Apr 2
Last Quarter
Apr 10
New

Hourly Weather History & Observations

Time (CDT) Temp. Dew Point Humidity Pressure Visibility Wind Dir Wind Speed Gust Speed Precip Events Conditions
12:15 AM 50.0 °F 41.0 °F 71% 30.39 in 9.0 mi Calm Calm - N/A   Mostly Cloudy
12:35 AM 48.2 °F 41.0 °F 76% 30.39 in 10.0 mi Calm Calm - N/A   Mostly Cloudy
12:55 AM 48.2 °F 41.0 °F 76% 30.38 in 9.0 mi Calm Calm - N/A   Mostly Cloudy
1:15 AM 48.2 °F 41.0 °F 76% 30.38 in 10.0 mi Calm Calm - N/A   Mostly Cloudy
1:35 AM 48.2 °F 41.0 °F 76% 30.37 in 10.0 mi Calm Calm - N/A   Mostly Cloudy
1:55 AM 46.4 °F 41.0 °F 81% 30.37 in 9.0 mi Calm Calm - N/A   Scattered Clouds
2:35 AM 44.6 °F 41.0 °F 87% 30.36 in 8.0 mi Calm Calm - N/A   Partly Cloudy
2:55 AM 46.4 °F 42.8 °F 87% 30.35 in 8.0 mi Calm Calm - N/A   Scattered Clouds
3:15 AM 46.4 °F 42.8 °F 87% 30.35 in 8.0 mi Calm Calm - N/A   Mostly Cloudy
4:15 AM 41.0 °F 41.0 °F 100% 30.35 in 8.0 mi Calm Calm - N/A   Mostly Cloudy
4:55 AM 42.8 °F 42.8 °F 100% 30.35 in 7.0 mi Calm Calm - N/A   Mostly Cloudy
5:15 AM 42.8 °F 42.8 °F 100% 30.35 in 7.0 mi Calm Calm - N/A   Mostly Cloudy
5:35 AM 42.8 °F 42.8 °F 100% 30.36 in 7.0 mi Calm Calm - N/A   Mostly Cloudy
5:55 AM 41.0 °F 41.0 °F 100% 30.36 in 6.0 mi Calm Calm - N/A   Mostly Cloudy
6:15 AM 42.8 °F 42.8 °F 100% 30.37 in 6.0 mi Calm Calm - N/A   Mostly Cloudy
6:35 AM 42.8 °F 42.8 °F 100% 30.37 in 6.0 mi Calm Calm - N/A   Mostly Cloudy
6:55 AM 42.8 °F 42.8 °F 100% 30.38 in 5.0 mi Calm Calm - N/A   Mostly Cloudy
7:15 AM 42.8 °F 42.8 °F 100% 30.39 in 5.0 mi Calm Calm - N/A   Partly Cloudy
7:55 AM 41.0 °F 41.0 °F 100% 30.39 in 3.0 mi Calm Calm - N/A   Clear
8:15 AM 44.6 °F 44.6 °F 100% 30.39 in 4.0 mi Calm Calm - N/A   Clear
8:55 AM 51.8 °F 51.8 °F 100% 30.41 in 5.0 mi Calm Calm - N/A   Clear
9:15 AM 55.4 °F 53.6 °F 94% 30.42 in 5.0 mi ESE 5.8 mph - N/A   Clear
9:35 AM 57.2 °F 53.6 °F 88% 30.42 in 7.0 mi ESE 8.1 mph - N/A   Clear
9:55 AM 60.8 °F 51.8 °F 72% 30.43 in 8.0 mi ESE 10.4 mph - N/A   Clear
10:15 AM 62.6 °F 50.0 °F 63% 30.43 in 8.0 mi ESE 9.2 mph - N/A   Clear
10:35 AM 64.4 °F 50.0 °F 59% 30.43 in 8.0 mi SSE 10.4 mph - N/A   Clear
10:55 AM 66.2 °F 48.2 °F 52% 30.43 in 9.0 mi SSE 9.2 mph - N/A   Clear
11:15 AM 68.0 °F 46.4 °F 46% 30.43 in 9.0 mi SSE 12.7 mph - N/A   Clear
11:35 AM 68.0 °F 46.4 °F 46% 30.43 in 8.0 mi South 11.5 mph - N/A   Clear
11:55 AM 68.0 °F 44.6 °F 43% 30.42 in 9.0 mi South 13.8 mph 18.4 mph N/A   Clear
12:15 PM 69.8 °F 44.6 °F 40% 30.42 in 9.0 mi SSE 10.4 mph - N/A   Clear
12:35 PM 71.6 °F 41.0 °F 33% 30.41 in 9.0 mi SSE 13.8 mph 18.4 mph N/A   Clear
12:55 PM 71.6 °F 41.0 °F 33% 30.40 in 10.0 mi SE 13.8 mph 17.3 mph N/A   Clear
1:15 PM 71.6 °F 42.8 °F 35% 30.39 in 10.0 mi SSE 10.4 mph 16.1 mph N/A   Clear
1:35 PM 73.4 °F 41.0 °F 31% 30.39 in 8.0 mi SSE 10.4 mph 17.3 mph N/A   Clear
1:55 PM 73.4 °F 41.0 °F 31% 30.37 in 9.0 mi South 8.1 mph - N/A   Clear
2:15 PM 73.4 °F 42.8 °F 33% 30.36 in 9.0 mi South 10.4 mph - N/A   Clear
2:35 PM 75.2 °F 44.6 °F 34% 30.34 in 9.0 mi SE 11.5 mph 17.3 mph N/A   Clear
2:55 PM 75.2 °F 44.6 °F 34% 30.33 in 9.0 mi SSE 6.9 mph - N/A   Clear
3:15 PM 75.2 °F 44.6 °F 34% 30.31 in 9.0 mi SSE 9.2 mph 18.4 mph N/A   Clear
3:35 PM 75.2 °F 44.6 °F 34% 30.31 in 9.0 mi SSE 9.2 mph - N/A   Clear
3:55 PM 75.2 °F 42.8 °F 31% 30.31 in 9.0 mi South 12.7 mph 18.4 mph N/A   Clear
4:15 PM 75.2 °F 42.8 °F 31% 30.30 in 9.0 mi South 15.0 mph 18.4 mph N/A   Clear
4:35 PM 75.2 °F 42.8 °F 31% 30.30 in 9.0 mi SSE 11.5 mph - N/A   Clear
4:55 PM 75.2 °F 42.8 °F 31% 30.29 in 10.0 mi SSE 15.0 mph 18.4 mph N/A   Clear
5:15 PM 75.2 °F 41.0 °F 29% 30.29 in 10.0 mi SE 10.4 mph - N/A   Clear
5:35 PM 75.2 °F 42.8 °F 31% 30.29 in 8.0 mi South 10.4 mph - N/A   Clear
5:55 PM 73.4 °F 44.6 °F 36% 30.28 in 10.0 mi South 11.5 mph - N/A   Clear
6:15 PM 73.4 °F 44.6 °F 36% 30.28 in 10.0 mi SSE 11.5 mph - N/A   Clear
6:35 PM 71.6 °F 44.6 °F 38% 30.28 in 9.0 mi South 10.4 mph - N/A   Clear
6:55 PM 69.8 °F 46.4 °F 43% 30.28 in 9.0 mi South 11.5 mph - N/A   Clear
7:15 PM 68.0 °F 46.4 °F 46% 30.28 in 9.0 mi South 11.5 mph - N/A   Clear
7:35 PM 66.2 °F 46.4 °F 49% 30.29 in 9.0 mi SSE 9.2 mph - N/A   Clear
7:55 PM 62.6 °F 46.4 °F 55% 30.29 in 10.0 mi SSE 8.1 mph - N/A   Clear
8:15 PM 59.0 °F 46.4 °F 63% 30.30 in 10.0 mi SSE 8.1 mph - N/A   Partly Cloudy
8:55 PM 59.0 °F 48.2 °F 67% 30.31 in 10.0 mi SE 10.4 mph - N/A   Partly Cloudy
9:15 PM 59.0 °F 48.2 °F 67% 30.31 in 10.0 mi SSE 11.5 mph - N/A   Clear
9:35 PM 57.2 °F 48.2 °F 72% 30.32 in 10.0 mi SE 9.2 mph - N/A   Clear
9:55 PM 57.2 °F 46.4 °F 67% 30.31 in 10.0 mi SSE 10.4 mph - N/A   Clear
10:15 PM 55.4 °F 46.4 °F 72% 30.31 in 9.0 mi SSE 9.2 mph - N/A   Clear
10:35 PM 55.4 °F 46.4 °F 72% 30.31 in 10.0 mi SSE 9.2 mph - N/A   Clear
10:55 PM 53.6 °F 46.4 °F 77% 30.31 in 9.0 mi SSE 9.2 mph - N/A   Clear
11:15 PM 53.6 °F 46.4 °F 77% 30.31 in 9.0 mi SSE 8.1 mph - N/A   Clear
11:35 PM 51.8 °F 46.4 °F 82% 30.30 in 10.0 mi SSE 6.9 mph - N/A   Clear
11:55 PM 50.0 °F 46.4 °F 87% 30.29 in 10.0 mi SSE 6.9 mph - N/A   Clear